Regional Weather Roundup
Issued by NWS

Home | Current Version | Previous Version | Text Only | Print | Product List | Glossary Off
Versions: 1 2 3 4 5 6 7 8 9 10 11 12 13 14 15 16 17 18 19 20 21 22 23 24 25 26 27 28 29 30 31 32 33 34 35 36 37 38 39 40 41 42 43 44 45 46 47 48 49 50

000
ASUS43 KMPX 221201
RWRMN
WEATHER ROUNDUP FOR MINNESOTA
NATIONAL WEATHER SERVICE TWIN CITIES/CHANHASSEN MN
600 AM CST MON JAN 22 2018


NOTE: "FAIR" INDICATES FEW OR NO CLOUDS BELOW 12,000 FEET WITH NO
SIGNIFICANT WEATHER AND/OR OBSTRUCTIONS TO VISIBILITY. N/A MEANS
CURRENT SKY AND/OR WEATHER CONDITIONS ARE NOT AVAILABLE.

MNZ060>063-068>070-221300-
   Twin Cities Metro

CITY           SKY/WX    TMP DP  RH WIND       PRES   REMARKS
TWIN CITIES    CLOUDY    33  30  88 NE17G28   29.82F WCI  22
6HR MIN TEMP:  33; 6HR MAX TEMP:  35; 6HR PCP: TRACE;

ST PAUL        CLOUDY    33  29  85 NE16G25   29.84F WCI  23
CRYSTAL        CLOUDY    32  25  75 N16G25    29.83F WCI  21
BLAINE         CLOUDY    34  30  86 N14       29.84F WCI  24
LAKEVILLE      MOCLDY    32  30  93 NE16G24   29.77F WCI  21
EDEN PRAIRIE   CLOUDY    33  29  85 N15G24    29.79S WCI  23
6HR MIN TEMP:  33; 6HR MAX TEMP:  36; 6HR PCP: TRACE;

SOUTH ST PAUL  FAIR      34  30  86 N16G22    29.81F WCI  23
LAKE ELMO      CLOUDY    34  32  93 NE12      29.84S WCI  25
$$
MNZ001>005-007-008-013>017-022>024-027-028-221300-
   Northwest Minnesota

CITY           SKY/WX    TMP DP  RH WIND       PRES   REMARKS
BEMIDJI        CLOUDY    25  24  96 NE9       29.99F WCI  15
HALLOCK        CLOUDY    23  19  86 NE3       30.12R
ROSEAU         CLOUDY    23  19  86 E3        30.12R
WARROAD        CLOUDY    21  18  86 NE8       30.12R FOG     WCI  12
CROOKSTON      MOCLDY    25  21  86 NE10      30.08F WCI  15
FOSSTON        CLOUDY    23  21  93 N13       30.01F WCI  11
DETROIT LAKES  CLOUDY    27  27 100 NE9       29.98S WCI  17
MOORHEAD       CLOUDY    25  21  86 N17       30.01F WCI  11
PARK RAPIDS    CLOUDY    25  22  88 NE12      29.96F WCI  14
MAHNOMEN       CLOUDY    26  24  93 NE14      29.99F WCI  14
$$
MNZ006-009>011-018-025>026-221300-
   North Central Minnesota

CITY           SKY/WX    TMP DP  RH WIND       PRES   REMARKS
BAUDETTE       CLOUDY    23  21  92 E7        30.09R FOG     WCI  15
FLAG ISLAND    CLOUDY    19  18  93 NE3       30.12R
INTL FALLS     CLOUDY    20  16  84 NE6       30.08F WCI  12
6HR MIN TEMP:  20; 6HR MAX TEMP:  23;

WASKISH        CLOUDY    25  23  93 NE3       30.05F
BIG FORK       CLOUDY    27  25  93 NE5       30.02S WCI  21
LONGVILLE      CLOUDY    27  25  93 NE7       29.98F WCI  19
GRAND RAPIDS   CLOUDY    26  23  88 VRB6      30.01F WCI  19
CRANE LAKE     CLOUDY    18  16  93 CALM      30.10S
ORR            CLOUDY    19  18  93 CALM      30.02F
COOK           CLOUDY    21  21 100 NE5       30.04F WCI  15
WALKER         CLOUDY    25  24  96 NE7       29.99S WCI  17
$$
MNZ012-019>021-037-221300-
   Northeast Minnesota

CITY           SKY/WX    TMP DP  RH WIND       PRES   REMARKS
DULUTH         LGT SNOW  25  23  92 E16       29.97F FOG     WCI  12
6HR MIN TEMP:  25; 6HR MAX TEMP:  28; 6HR PCP:  0.07;

HIBBING        CLOUDY    24  23  96 E6        30.00F WCI  17
EVELETH        CLOUDY    23  20  89 NE3       30.02F
DULUTH HARBOR  MIX PCPN  28  27  93 NE28G33   30.01F WCI  13
TWO HARBORS    CLOUDY    27  21  80 NE9G16    30.00S FOG     WCI  17
SILVER BAY     CLOUDY    23  21  93 NE8       30.03S FOG     WCI  14
GRAND MARAIS     N/A     22  17  81 NE9       30.10F WCI  12
G MARAIS ARPRT CLOUDY    16  10  79 N9        30.02S WCI   4
$$
MNZ029>031-032-039>041-046>048-054>057-064-221300-
   West Central Minnesota

CITY           SKY/WX    TMP DP  RH WIND       PRES   REMARKS
FERGUS FALLS   CLOUDY    25  25 100 NE9       29.97S WCI  15
WHEATON        CLOUDY    25  23  93 N13       30.00S WCI  13
MORRIS         CLOUDY    27  25  93 NE17      29.92S FOG     WCI  14
ALEXANDRIA     CLOUDY    26  25  96 NE14      29.91S FOG     WCI  14
ELBOW LAKE     CLOUDY    25  24  99 NE13      29.95R FOG     WCI  13
WADENA         CLOUDY    25  25 100 NE10      29.95S WCI  15
GLENWOOD       CLOUDY    27  27 100 NE15      29.89F FOG     WCI  15
APPLETON       CLOUDY    27  25  93 N20       29.90F WCI  13
BENSON         CLOUDY    27  25  93 NE17      29.90F WCI  14
ORTONVILLE     CLOUDY    25  21  86 N18       29.92F FOG     WCI  11
MADISON        CLOUDY    28  28 100 N21       29.89F WCI  15
WILLMAR        CLOUDY    28  27  93 NE21      29.87F WCI  15
$$
MNZ033>034-036-042>043-049>051-058-059-221300-
   Central Minnesota

CITY           SKY/WX    TMP DP  RH WIND       PRES   REMARKS
ST CLOUD       CLOUDY    29  26  89 NE12G21   29.88F WCI  19
6HR MIN TEMP:  28; 6HR MAX TEMP:  30;

SAUK CENTRE      N/A     28  26  92 NE12      29.90R WCI  17
PAYNESVILLE    CLOUDY    29  28  96 NE14G21   29.86F WCI  19
AITKIN         CLOUDY    27  21  80 NE10      29.95S WCI  17
PINE RIVER     CLOUDY    25  21  86 NE8       30.00F WCI  16
BRAINERD       CLOUDY    28  23  81 NE16      29.95F WCI  16
STAPLES        CLOUDY    27  25  93 NE12G18   29.94S WCI  16
LONG PRAIRIE   CLOUDY    28  27  93 N12G17    29.92R WCI  18
LITTLE FALLS   CLOUDY    30  21  69 NE7       29.93R WCI  23
LITCHFIELD     CLOUDY    30  30 100 NE16G23   29.84F WCI  19
BUFFALO        CLOUDY    31  27  85 N13G21    29.85F WCI  21
MAPLE LAKE     CLOUDY    31  29  90 MISG      29.86F
HUTCHINSON     CLOUDY    31  29  93 N16G23    29.83F WCI  20
$$
MNZ037-044-045-052-053-221300-
   East Central Minnesota

CITY           SKY/WX    TMP DP  RH WIND       PRES   REMARKS
PRINCETON      CLOUDY    30  27  86 N17G23    29.88F WCI  18
MORA           CLOUDY    30  25  80 NE8       29.93S WCI  23
CAMBRIDGE      CLOUDY    32  25  74 N9G16     29.89F WCI  24
RUSH CITY      CLOUDY    30  26  84 NE14G20   29.90F WCI  19
MOOSE LAKE     CLOUDY    28  25  86 NE10G17   29.93F WCI  19
HINCKLEY       CLOUDY    30  28  93 NE13G18   29.93R WCI  20
CLOQUET        LGT SNOW  27  23  86 E15G29    29.96F WCI  15
MCGREGOR       CLOUDY    28  25  86 NE7G17    29.97S WCI  21
$$
MNZ071>073-080-081-089-090-097-098-221300-
   Southwest Minnesota

CITY           SKY/WX    TMP DP  RH WIND       PRES   REMARKS
MONTEVIDEO     CLOUDY    27  27 100 NE16      29.87F WCI  14
GRANITE FALLS  CLOUDY    30  27  90 N16G23    29.87S WCI  18
CANBY          CLOUDY    27  26  98 N20       29.87F FOG     WCI  13
MARSHALL       CLOUDY    26  25  96 N21       29.82F FOG     WCI  12
REDWOOD FALLS  CLOUDY    30  28  92 N14G28    29.80F WCI  19
OLIVIA         CLOUDY    30  28  93 NE16G23   29.82F WCI  19
PIPESTONE      CLOUDY    25  23  93 NE23G35   29.73F WCI  10
WINDOM         SNOW      30  18  59 N24G32    29.71F VSB 1/2 WCI  16
WORTHINGTON    LGT SNOW  29  28  96 N28G35    29.67F VSB 1   WCI  14
JACKSON        CLOUDY    32  30  93 N26G37    29.67F WCI  18
TRACY          LGT SNOW  28  27  97 N21G31    29.78S WCI  15
SLAYTON        LGT SNOW  26  25  96 N26G33    29.73S WCI  10
$$
MNZ065>067-074>077-082>085-091>093-221300-
   South Central Minnesota

CITY           SKY/WX    TMP DP  RH WIND       PRES   REMARKS
MANKATO        LGT RAIN  33  29  85 NE23G31   29.73F WCI  21
NEW ULM        LGT SNOW  30  28  93 NE16G24   29.76F WCI  19
ST JAMES       FLURRIES  30  28  93 N20G29    29.73F WCI  18
FAIRMONT       LGT SNOW  32  31  96 N21G28    29.67S VSB 3/4 WCI  20
FARIBAULT      LGT RAIN  34  30  86 N15G26    29.74F WCI  24
OWATONNA       LGT SNOW  34  30  86 N14G21    29.71  WCI  24
WASECA         LGT SNOW  32  30  93 N23       29.72F WCI  19
ALBERT LEA     MIX PCPN  34  32  93 NE22G31   29.63F WCI  22
$$
MNZ078>079-086>088-094>096-221300-
   Southeast Minnesota

CITY           SKY/WX    TMP DP  RH WIND       PRES   REMARKS
ROCHESTER      LGT RAIN  34  33  96 NE22      29.67S FOG     WCI  22
6HR MIN TEMP:  33; 6HR MAX TEMP:  35; 6HR PCP:  0.22;

RED WING       CLOUDY    36  28  75 NE9G21    29.76F
STANTON        CLOUDY    35  31  86 NE18G25   29.75S WCI  24
DODGE CENTER   LGT SNOW  32  30  93 NE20G28   29.68S WCI  20
WINONA         LGT RAIN  36  34  93 E7        29.71F
PRESTON        RAIN      33  32  94 NE20G29   29.64F WCI  22
$$
ABBREVIATIONS USED IN REMARKS
   TC - TEMPERATURES IN CELSIUS
  WCI - WIND CHILL INDEX
   HX - HEAT INDEX
  VSB - VISIBILITY
$$




USA.gov is the U.S. government's official web portal to all federal, state and local government web resources and services.